User: anonymous   Login
Location: Rometta
(44.2000°N, 10.0500°E)
Time: 22:30:53
(UTC+00:00)
Language:

Cosmos 1844 - Orbit

View from above orbital plane
View from above orbital plane
View from above satellite
View from above satellite

Ground track
Ground track

The orbit data is extracted from the following two-line orbital elements,

1 17973U 87041A   21103.00286301 -.00000282  00000-0 -12191-3 0  9995
2 17973  70.8975 211.6858 0031783 195.5803 164.4343 14.14112256750463
Epoch (UTC): 13 April 2021 00:04:07
Eccentricity: 0.0031783
inclination: 70.8975°
perigee height: 822 km
apogee height: 868 km
right ascension of ascending node: 211.6858°
argument of perigee: 195.5803°
revolutions per day: 14.14112256
mean anomaly at epoch: 164.4343°
orbit number at epoch: 75046

The dashed part of the orbit path shows where the satellite is in the earth's shadow,  

DLR